"Pseudo-MPEC" for ZYAC294

Created 2019 Jan 23 12:18:27 UT using Find_Orb

Click here for an explanation of pseudo-MPECs

 
 Astrometry: 
     ZYAC294  C2018 12 31.13488 04 19 16.48 +16 50 12.9    ~CV4I 21.2 GVNEOCPG96
     ZYAC294  C2018 12 31.14059 04 19 15.78 +16 50 43.8    ~CV4I 21.5 GVNEOCPG96
     ZYAC294  C2018 12 31.14628 04 19 14.87 +16 51 16.8    ~CV4I 21.4 GVNEOCPG96
     ZYAC294  C2018 12 31.15199 04 19 14.05 +16 51 49.0    ~CV4I 21.3 GVNEOCPG96
     ZYAC294  C2018 12 31.33562 04 18 47.25 +17 08 59.2    ~CVCI 21.7 GVNEOCPG96
     ZYAC294  C2018 12 31.33724 04 18 47.02 +17 09 08.6    ~CVCI 21.2 GVNEOCPG96
     ZYAC294  C2018 12 31.33886 04 18 46.87 +17 09 18.5    ~CVCI 20.8 GVNEOCPG96
     ZYAC294  C2018 12 31.34048 04 18 46.56 +17 09 27.2    ~CVCI 21.3 GVNEOCPG96

Station data:
(G96) Mt. Lemmon Survey  (N32.442754 W110.788720)  US/Arizona.  Observers B.
   M. Africano, E. J. Christensen, G. A. Farneth, D. C. Fuls, A. R. Gibbs, A.
   D. Grauer, H. Groeller, J. A. Johnson, R. A. Kowalski, S. M. Larson, G. J.
   Leonard, R. L. Seaman, F. C. Shelly. 1.5-m reflector + 10K CCD.

Orbital elements:  ZYAC294
   Perihelion 2018 Dec 31.290942 TT =  6:58:57 (JD 2458483.790942)
Epoch 2018 Dec 31.0 TT = JDT 2458483.5   Earth MOID: 0.2239   Ma: 0.0998
M 359.82214662                      (J2000 ecliptic)
n   0.61130084     Peri.  357.88013
a   1.37498951     Node    94.42337
e   0.1219132      Incl.   25.57878
P   1.61/588.90d   H   22.9     G   0.15   q 1.20736007  Q 1.54261895
From 8 observations 2018 Dec. 31 (4.9 hr); mean residual 0".54
Residuals in arcseconds: 
181231 G96  .91-  .66+    181231 G96  .08+  .00     181231 G96  .86+  .61+    
181231 G96  1.0+  .74-    181231 G96  .31-  .62-    181231 G96  .28-  .28+    
181231 G96  .14-  .08+    181231 G96  .30-  .26-    

Ephemerides (geocentric):
Date (UTC) HH   RA              Dec         delta   r     elong  mag
---- -- -- --  -------------   -----------  ------ ------ -----  ---
2019 01 23 12  03 52 42.124   +43 37 50.54  .37374 1.2140 119.8 22.9
2019 01 23 13  03 52 42.299   +43 39 43.07  .37401 1.2140 119.7 22.9
2019 01 23 14  03 52 42.484   +43 41 35.43  .37429 1.2140 119.7 23.0
2019 01 23 15  03 52 42.680   +43 43 27.63  .37456 1.2140 119.7 23.0
2019 01 23 16  03 52 42.888   +43 45 19.66  .37483 1.2140 119.6 23.0
2019 01 23 17  03 52 43.105   +43 47 11.53  .37510 1.2141 119.6 23.0
2019 01 23 18  03 52 43.334   +43 49 03.23  .37537 1.2141 119.5 23.0
2019 01 23 19  03 52 43.573   +43 50 54.77  .37565 1.2141 119.5 23.0
2019 01 23 20  03 52 43.823   +43 52 46.14  .37592 1.2141 119.5 23.0
2019 01 23 21  03 52 44.083   +43 54 37.35  .37619 1.2142 119.4 23.0
2019 01 23 22  03 52 44.354   +43 56 28.40  .37646 1.2142 119.4 23.0
2019 01 23 23  03 52 44.636   +43 58 19.29  .37674 1.2142 119.4 23.0
2019 01 24 00  03 52 44.929   +44 00 10.01  .37701 1.2142 119.3 23.0
2019 01 24 01  03 52 45.232   +44 02 00.57  .37728 1.2143 119.3 23.0
2019 01 24 02  03 52 45.546   +44 03 50.96  .37756 1.2143 119.2 23.0
2019 01 24 03  03 52 45.870   +44 05 41.20  .37783 1.2143 119.2 23.0
2019 01 24 04  03 52 46.205   +44 07 31.27  .37810 1.2143 119.2 23.0
2019 01 24 05  03 52 46.551   +44 09 21.19  .37838 1.2144 119.1 23.0
2019 01 24 06  03 52 46.908   +44 11 10.94  .37865 1.2144 119.1 23.0
2019 01 24 07  03 52 47.275   +44 13 00.53  .37892 1.2144 119.1 23.0
2019 01 24 08  03 52 47.653   +44 14 49.96  .37920 1.2144 119.0 23.0
2019 01 24 09  03 52 48.042   +44 16 39.23  .37947 1.2145 119.0 23.0
2019 01 24 10  03 52 48.441   +44 18 28.34  .37975 1.2145 119.0 23.0
2019 01 24 11  03 52 48.851   +44 20 17.29  .38002 1.2145 118.9 23.0
2019 01 24 12  03 52 49.271   +44 22 06.08  .38030 1.2145 118.9 23.0
2019 01 24 13  03 52 49.703   +44 23 54.71  .38057 1.2146 118.8 23.0
2019 01 24 14  03 52 50.144   +44 25 43.18  .38084 1.2146 118.8 23.0
2019 01 24 15  03 52 50.597   +44 27 31.49  .38112 1.2146 118.8 23.0
2019 01 24 16  03 52 51.060   +44 29 19.65  .38139 1.2146 118.7 23.0
2019 01 24 17  03 52 51.534   +44 31 07.65  .38167 1.2147 118.7 23.0
2019 01 24 18  03 52 52.019   +44 32 55.49  .38194 1.2147 118.7 23.0
2019 01 24 19  03 52 52.514   +44 34 43.17  .38222 1.2147 118.6 23.0
2019 01 24 20  03 52 53.020   +44 36 30.69  .38250 1.2147 118.6 23.0
2019 01 24 21  03 52 53.536   +44 38 18.06  .38277 1.2147 118.5 23.0
2019 01 24 22  03 52 54.063   +44 40 05.27  .38305 1.2148 118.5 23.0
2019 01 24 23  03 52 54.601   +44 41 52.33  .38332 1.2148 118.5 23.0
2019 01 25 00  03 52 55.149   +44 43 39.23  .38360 1.2148 118.4 23.0
2019 01 25 01  03 52 55.708   +44 45 25.97  .38387 1.2148 118.4 23.0
2019 01 25 02  03 52 56.278   +44 47 12.56  .38415 1.2149 118.4 23.0
2019 01 25 03  03 52 56.858   +44 48 58.99  .38443 1.2149 118.3 23.0
2019 01 25 04  03 52 57.449   +44 50 45.26  .38470 1.2149 118.3 23.0
2019 01 25 05  03 52 58.051   +44 52 31.39  .38498 1.2149 118.3 23.0
2019 01 25 06  03 52 58.663   +44 54 17.35  .38526 1.2150 118.2 23.0
2019 01 25 07  03 52 59.286   +44 56 03.17  .38553 1.2150 118.2 23.0
2019 01 25 08  03 52 59.919   +44 57 48.82  .38581 1.2150 118.2 23.0
2019 01 25 09  03 53 00.564   +44 59 34.33  .38609 1.2150 118.1 23.0
2019 01 25 10  03 53 01.218   +45 01 19.68  .38636 1.2151 118.1 23.0
2019 01 25 11  03 53 01.884   +45 03 04.88  .38664 1.2151 118.0 23.0